| time (UTC) | temp F | wind direction | speed MPH | gust MPH | rain 1hr in | rain 24hr in | rain mn in | humidity % | barometer mb |
| 20260505153006 | 81 | 67 | 6.0 | 13.0 | 0.00 | 0.00 | 0.00 | 51 | 1014.9 |
| 20260505152007 | 80 | 36 | 4.0 | 13.0 | 0.00 | 0.00 | 0.00 | 51 | 1015.0 |
| 20260505151006 | 80 | 83 | 10.0 | 16.0 | 0.00 | 0.00 | 0.00 | 52 | 1014.9 |
| 20260505125007 | 76 | 65 | 6.0 | 15.0 | 0.00 | 0.10 | 0.00 | 68 | 1014.2 |
| 20260505124006 | 76 | 74 | 6.0 | 12.0 | 0.00 | 0.10 | 0.00 | 71 | 1014.1 |
| 20260505123007 | 75 | 89 | 3.0 | 6.0 | 0.00 | 0.10 | 0.00 | 75 | 1014.2 |
| 20260505122006 | 74 | 78 | 3.0 | 5.0 | 0.00 | 0.10 | 0.00 | 76 | 1014.6 |
| 20260505121005 | 73 | 79 | 1.0 | 3.0 | 0.00 | 0.10 | 0.00 | 82 | 1014.6 |
| 20260505120006 | 70 | 44 | 1.0 | 2.0 | 0.00 | 0.10 | 0.00 | 82 | 1014.2 |
| 20260505115006 | 67 | 47 | 0.0 | 0.0 | 0.00 | 0.10 | 0.00 | 68 | 1014.1 |
| 20260505112006 | 63 | 47 | 0.0 | 0.0 | 0.00 | 0.10 | 0.00 | 71 | 1013.5 |
| 20260505111006 | 62 | 47 | 0.0 | 0.0 | 0.00 | 0.10 | 0.00 | 72 | 1013.5 |
| 20260505102006 | 61 | 59 | 0.0 | 0.0 | 0.00 | 0.10 | 0.00 | 75 | 1013.1 |
| 20260505101005 | 61 | 59 | 0.0 | 0.0 | 0.00 | 0.10 | 0.00 | 77 | 1013.1 |
| 20260505095007 | 61 | 59 | 0.0 | 0.0 | 0.00 | 0.10 | 0.00 | 77 | 1012.6 |
| 20260505094007 | 62 | 59 | 0.0 | 0.0 | 0.00 | 0.10 | 0.00 | 76 | 1012.7 |
| 20260505093006 | 62 | 59 | 0.0 | 0.0 | 0.00 | 0.10 | 0.00 | 76 | 1012.8 |
| 20260505092006 | 62 | 59 | 0.0 | 0.0 | 0.00 | 0.10 | 0.00 | 78 | 1012.6 |
| 20260505091006 | 62 | 59 | 0.0 | 0.0 | 0.00 | 0.10 | 0.00 | 77 | 1012.8 |
| 20260505090005 | 62 | 59 | 0.0 | 0.0 | 0.00 | 0.10 | 0.00 | 79 | 1012.6 |
| 20260505084006 | 62 | 59 | 0.0 | 0.0 | 0.00 | 0.10 | 0.00 | 78 | 1012.4 |
| 20260505082006 | 63 | 59 | 0.0 | 0.0 | 0.00 | 0.10 | 0.00 | 80 | 1012.2 |
| 20260505081006 | 63 | 59 | 0.0 | 0.0 | 0.00 | 0.10 | 0.00 | 79 | 1012.5 |
| 20260505075005 | 63 | 59 | 0.0 | 0.0 | 0.00 | 0.10 | 0.00 | 82 | 1012.3 |
| 20260505074006 | 63 | 59 | 0.0 | 0.0 | 0.00 | 0.10 | 0.00 | 83 | 1012.3 |
| 20260505073005 | 63 | 59 | 0.0 | 0.0 | 0.00 | 0.10 | 0.00 | 83 | 1012.4 |
| 20260505072006 | 63 | 59 | 0.0 | 0.0 | 0.00 | 0.10 | 0.00 | 82 | 1012.7 |
| 20260505071007 | 64 | 59 | 0.0 | 0.0 | 0.00 | 0.10 | 0.00 | 82 | 1012.9 |
| 20260505070005 | 64 | 59 | 0.0 | 0.0 | 0.00 | 0.10 | 0.00 | 82 | 1012.8 |
| 20260505065006 | 64 | 59 | 0.0 | 0.0 | 0.00 | 0.10 | 0.00 | 84 | 1012.8 |
| 20260505064006 | 64 | 59 | 0.0 | 0.0 | 0.00 | 0.10 | 0.00 | 84 | 1012.8 |
| 20260505063006 | 64 | 59 | 0.0 | 0.0 | 0.00 | 0.10 | 0.00 | 85 | 1013.0 |
| 20260505061006 | 65 | 59 | 0.0 | 0.0 | 0.00 | 0.10 | 0.00 | 85 | 1013.2 |
| 20260505055006 | 66 | 59 | 0.0 | 0.0 | 0.00 | 0.10 | 0.00 | 85 | 1013.5 |
| 20260505054006 | 66 | 59 | 0.0 | 0.0 | 0.00 | 0.10 | 0.00 | 85 | 1013.8 |
| 20260505052007 | 68 | 59 | 0.0 | 0.0 | 0.00 | 0.10 | 0.00 | 84 | 1013.8 |
| 20260505040006 | 70 | 71 | 1.0 | 3.0 | 0.00 | 0.10 | 0.00 | 80 | 1014.1 |
| 20260505034006 | 71 | 116 | 1.0 | 3.0 | 0.00 | 0.10 | 0.10 | 80 | 1014.3 |
| 20260505033006 | 71 | 96 | 2.0 | 3.0 | 0.00 | 0.10 | 0.10 | 79 | 1014.3 |
| 20260505031007 | 71 | 85 | 1.0 | 3.0 | 0.00 | 0.10 | 0.10 | 79 | 1014.5 |
| 20260505030006 | 71 | 73 | 1.0 | 3.0 | 0.00 | 0.10 | 0.10 | 79 | 1014.5 |
| 20260505025007 | 71 | 87 | 2.0 | 3.0 | 0.00 | 0.10 | 0.10 | 79 | 1014.3 |
| 20260505024007 | 72 | 70 | 2.0 | 3.0 | 0.00 | 0.10 | 0.10 | 79 | 1014.3 |
| 20260505023006 | 72 | 88 | 1.0 | 3.0 | 0.00 | 0.10 | 0.10 | 79 | 1014.3 |
| 20260505022005 | 72 | 66 | 2.0 | 3.0 | 0.00 | 0.10 | 0.10 | 79 | 1014.3 |
| 20260505021007 | 72 | 65 | 3.0 | 5.0 | 0.00 | 0.10 | 0.10 | 79 | 1014.3 |
| 20260505020005 | 72 | 68 | 3.0 | 7.0 | 0.00 | 0.10 | 0.10 | 78 | 1014.2 |
| 20260505015008 | 72 | 64 | 4.0 | 8.0 | 0.00 | 0.10 | 0.10 | 78 | 1014.1 |
| 20260505013006 | 72 | 70 | 2.0 | 5.0 | 0.00 | 0.10 | 0.10 | 78 | 1014.4 |
| 20260505012006 | 72 | 84 | 2.0 | 5.0 | 0.00 | 0.10 | 0.10 | 78 | 1014.4 |
| 20260505011006 | 72 | 72 | 3.0 | 9.0 | 0.00 | 0.10 | 0.10 | 77 | 1014.1 |
| 20260505010006 | 72 | 52 | 2.0 | 3.0 | 0.00 | 0.10 | 0.10 | 77 | 1014.0 |
| 20260505005006 | 72 | 41 | 1.0 | 5.0 | 0.00 | 0.10 | 0.10 | 77 | 1014.0 |
| 20260505004009 | 72 | 83 | 2.0 | 6.0 | 0.00 | 0.10 | 0.10 | 76 | 1013.8 |
| 20260505003006 | 72 | 69 | 4.0 | 8.0 | 0.00 | 0.10 | 0.10 | 75 | 1013.8 |
| 20260505002005 | 72 | 68 | 3.0 | 9.0 | 0.00 | 0.10 | 0.10 | 75 | 1013.5 |
| 20260505000007 | 73 | 76 | 3.0 | 12.0 | 0.00 | 0.10 | 0.10 | 73 | 1013.2 |
| 20260504235007 | 73 | 78 | 5.0 | 9.0 | 0.00 | 0.10 | 0.10 | 71 | 1013.2 |
| 20260504234005 | 74 | 72 | 5.0 | 9.0 | 0.00 | 0.10 | 0.10 | 70 | 1013.1 |
| 20260504233006 | 74 | 73 | 3.0 | 10.0 | 0.00 | 0.10 | 0.10 | 68 | 1013.1 |
| 20260504231006 | 74 | 86 | 5.0 | 10.0 | 0.00 | 0.10 | 0.10 | 68 | 1013.0 |
| 20260504230006 | 75 | 73 | 5.0 | 12.0 | 0.00 | 0.10 | 0.10 | 67 | 1013.2 |
| 20260504225006 | 75 | 70 | 4.0 | 12.0 | 0.00 | 0.10 | 0.10 | 66 | 1013.2 |
| 20260504224006 | 75 | 88 | 7.0 | 13.0 | 0.00 | 0.10 | 0.10 | 66 | 1013.1 |
| 20260504223006 | 75 | 87 | 6.0 | 13.0 | 0.00 | 0.10 | 0.10 | 65 | 1013.2 |
| 20260504221005 | 75 | 69 | 8.0 | 14.0 | 0.00 | 0.10 | 0.10 | 66 | 1013.1 |
| 20260504215006 | 75 | 79 | 7.0 | 15.0 | 0.00 | 0.10 | 0.10 | 66 | 1013.1 |
| 20260504213006 | 76 | 65 | 7.0 | 14.0 | 0.00 | 0.10 | 0.10 | 66 | 1013.3 |
| 20260504210006 | 76 | 61 | 11.0 | 20.0 | 0.00 | 0.10 | 0.10 | 66 | 1013.3 |
| 20260504205008 | 75 | 77 | 9.0 | 17.0 | 0.00 | 0.10 | 0.10 | 68 | 1013.5 |
| 20260504204006 | 75 | 78 | 10.0 | 16.0 | 0.00 | 0.10 | 0.10 | 69 | 1013.8 |
| 20260504203005 | 75 | 88 | 8.0 | 18.0 | 0.00 | 0.10 | 0.10 | 68 | 1013.7 |
| 20260504202006 | 75 | 73 | 11.0 | 18.0 | 0.00 | 0.10 | 0.10 | 67 | 1013.9 |
| 20260504201006 | 75 | 70 | 12.0 | 20.0 | 0.00 | 0.10 | 0.10 | 68 | 1013.7 |
| 20260504200006 | 76 | 76 | 7.0 | 20.0 | 0.00 | 0.10 | 0.10 | 66 | 1013.5 |
| 20260504195005 | 76 | 84 | 10.0 | 18.0 | 0.00 | 0.10 | 0.10 | 65 | 1013.8 |
| 20260504194006 | 76 | 67 | 7.0 | 18.0 | 0.00 | 0.10 | 0.10 | 66 | 1014.0 |
| 20260504193006 | 76 | 45 | 6.0 | 17.0 | 0.00 | 0.10 | 0.10 | 67 | 1014.1 |
| 20260504192005 | 76 | 96 | 9.0 | 18.0 | 0.00 | 0.10 | 0.10 | 67 | 1014.1 |
| 20260504190006 | 76 | 62 | 8.0 | 17.0 | 0.00 | 0.10 | 0.10 | 67 | 1014.5 |
| 20260504185006 | 75 | 58 | 7.0 | 15.0 | 0.00 | 0.10 | 0.10 | 66 | 1014.6 |
| 20260504184006 | 75 | 89 | 10.0 | 17.0 | 0.00 | 0.10 | 0.10 | 67 | 1014.7 |
| 20260504182006 | 76 | 73 | 11.0 | 20.0 | 0.00 | 0.10 | 0.10 | 65 | 1014.8 |
| 20260504181006 | 77 | 72 | 10.0 | 20.0 | 0.00 | 0.10 | 0.10 | 65 | 1014.7 |
| 20260504180006 | 77 | 81 | 9.0 | 17.0 | 0.00 | 0.10 | 0.10 | 64 | 1014.9 |
| 20260504175006 | 77 | 73 | 10.0 | 18.0 | 0.00 | 0.10 | 0.10 | 66 | 1014.9 |
| 20260504174006 | 78 | 58 | 10.0 | 16.0 | 0.00 | 0.10 | 0.10 | 63 | 1015.1 |
| 20260504173006 | 78 | 46 | 7.0 | 17.0 | 0.00 | 0.10 | 0.10 | 65 | 1015.1 |
| 20260504172006 | 76 | 76 | 11.0 | 17.0 | 0.00 | 0.10 | 0.10 | 66 | 1015.0 |
| 20260504171006 | 76 | 65 | 7.0 | 16.0 | 0.00 | 0.10 | 0.10 | 66 | 1015.2 |